Location: Brno
(49.2000°N, 16.6330°E)
Time: 23:58:40
(UTC+02:00)

X-37B - Pass Details

Date: 22 June 2021
Orbit: 383 x 392 km, 45.0° (Epoch: 01 July)

Event Time Altitude Azimuth Distance (km) Brightness Sun altitude
Exits shadow 02:10:37 22° 139° (SE) 906 2.1 -15.5°
Drops below altitude 10° 02:12:04 10° 122° (ESE) 1,404 3.3 -15.4°
Sets 02:14:14 0° 113° (ESE) 2,258 4.4 -15.3°
